Погода в Чуре

Россия / Удмуртская Республика     57°06′54″N   52°58′02″E
темп.,
°C
ветер,
м/с
пор.,
м/с
влажн.,
%
обл.,
%
осадки,
мм/ч
давл.,
гПа
погр.,
м
6 марта, сб
сб601:00−12зюз259763 0.1 1006126
04:00−13з239770 0.1 100886
07:00−13зсз389692 0.1 1009230
10:00−13сз368880 0.1 1011390
13:00−10зсз358029 0.0 1011804
16:00−10з358364 0.1 1011885
19:00−14зюз2396100 0.1 101265
22:00−17з239779 0.1 101223
7 марта, вс
вс701:00−19зюз129923 0.0 101120
04:00−18зюз119857 0.1 101120
07:00−19юз1210092 0.1 101120
10:00−14юз129193 0.1 1010264
13:00−10юз2381100 0.1 1009751
16:00−9ююз2484100 0.2 1008839
19:00−13ю2696100 0.1 1007154
22:00−16ююв389894 0.1 1006200
8 марта, пн
пн801:00−14ююв4996100 0.1 1002330
04:00−13ююв41194100 0.6 999527
07:00−11юв51294100 0.9 995649
10:00−7юв51194100 1.9 994678
13:00−6юз61087100 0.5 995927
16:00−6юз5107894 0.6 996946
19:00−9ююз279182 0.0 996219
22:00−10ююв229789 0.2 99738
9 марта, вт
вт901:00−10юз2796100 0.4 997212
04:00−12юз249699 0.6 999128
07:00−13зюз269783 0.1 1001159
10:00−13з359392 0.1 1003325
13:00−9з2489100 0.1 1005525
16:00−9з3590100 0.3 1006621
19:00−12з3794100 0.3 1007281
22:00−13зсз3794100 0.3 1009289
10 марта, ср
ср1001:00−14сз3696100 0.3 1010218
04:00−16с2696100 0.5 1011291
07:00−19ссз249793 0.1 1012123
10:00−18с249192 0.2 1013414
13:00−15ссз3485100 0.0 1015606
16:00−15ссз3582100 0.1 1015700
19:00−21сз239399 0.0 101663
22:00−24сз239550 0.0 101851